Siga o Apolo11 no Facebook   Siga o Apolo11 no Twiiter
Ciência, Espaço e Tecnologia




Elementos Keplerianos formato Two Line

Para que um programa de rastreio possa saber a localização exata de qualquer satélite no espaço e assim poder rastreá-lo corretamente, é necessário que ele seja carregado com algumas informações.

Estas informações são chamadas de Elementos Orbitais ou Elementos Keplerianos e consistem em 2 linhas com dezenas de números. Esses números nada mais são que os parâmetros orbitais do satélite, tais como altitude, atitude, excentricidade da órbita, número de órbitas por dia, etc.

Com base nestas informações o programa é capaz de determinar com bastante exatidão a posição de qualquer satélite no espaço e nos informar em qual horário este estará dentro do alcance de nossa estação. Para que isso seja feito com precisão é necessário que os dados estejam sempre bem atualizadas.

Devido aos parâmetros orbitais serem descritos em 2 linhas, estes formato é também conhecido internacionalmente por 2line (leia-se Two Line”).

Para atualizar seu programa de rastreio basta copiar os dados disponibilizados e fornece-los ao programa. Nossos elementos orbitais são atualizados diariamente.

NOAATodos os satélites ambientais da série NOAA
30 DiasSatélites lançados nos últimos 30 dias
ISSSatélites e foguetes relacionados à Estação Espacial Internacional
HAMSatélites construídos por radiomadores
CUBESatélites tipo cubo, com 10 centímetros de lado
METEOSatélites voltados à previsão do tempo
EDUSatélites construídos e operados por universidades
VIS100 satélites mais brilhantes que podem ser vistos a olho nú



Satélites Meteorológicos
ORBVIEW 2 (SEASTAR)     
1 24883U 97037A   13168.95576260  .00000105  00000-0  54255-4 0   598
2 24883  98.4523 283.7040 0003564 111.6455   1.2845 14.32648756842766
METEOSAT-7              
1 24932U 97049B   13169.02029360  .00000059  00000-0  00000+0 0  6890
2 24932   8.4271  52.1690 0001867  87.0400 192.1550  1.00276838 57840
NOAA 15                 
1 25338U 98030A   13169.25926079  .00000204  00000-0  86709-4 0  7719
2 25338  98.7241 159.4538 0011614 121.2155 239.0651 14.25230925785008
NOAA 16                 
1 26536U 00055A   13169.10488784  .00000089  00000-0  47731-4 0  2505
2 26536  99.0432 221.8771 0011397 129.8336 230.4312 14.12885892656709
GOES 12                 
1 26871U 01031A   13168.41210576 -.00000281  00000-0  00000+0 0  1043
2 26871   3.0528  69.3725 0003529  43.2412 241.2605  1.00282252 43651
FENGYUN 1D              
1 27431U 02024B   13169.36698988  .00000126  00000-0  97062-4 0  3274
2 27431  98.8160 133.4096 0014595 235.5303 124.4492 14.09401035570760
NOAA 17                 
1 27453U 02032A   13169.46102682  .00000092  00000-0  39581-4 0  1675
2 27453  98.3127 183.4708 0012121 156.5147 203.7076 14.24596709570903
METEOSAT-8 (MSG-1)      
1 27509U 02040B   13169.27660716  .00000025  00000-0  00000+0 0  4186
2 27509   2.1274  62.6167 0002023  50.5311 256.6268  1.00271327 39652
KALPANA-1 (METSAT 1)    
1 27525U 02043A   13168.78159389 -.00000076  00000-0  00000+0 0  7170
2 27525   3.6505  66.8106 0002298 193.4614   1.2991  1.00271382 39444
INSAT-3A                
1 27714U 03013A   13168.40956220  .00000000  00000-0  10000-3 0  7313
2 27714   0.0071 215.0154 0000466 169.2580 122.4938  1.00265459 37355
FENGYUN 2C              
1 28451U 04042A   13169.08928623  .00000000  00000-0  10000-3 0  7080
2 28451   4.7425  62.4330 0001028  95.3685 264.4300  1.00271193 31703
HIMAWARI-6 (MTSAT-1R)   
1 28622U 05006A   13169.30648646 -.00001004 -41757-6  10000-3 0  8943
2 28622   0.0071 181.0671 0000666 354.8991 341.0335  1.00258595 30323
NOAA 18                 
1 28654U 05018A   13168.45032330 -.00000027  00000-0  10487-4 0  6539
2 28654  99.0990 136.6705 0013972 203.8604 315.3528 14.11829295416095
METEOSAT-9 (MSG-2)      
1 28912U 05049B   13169.29007274  .00000067  00000-0  00000+0 0  5900
2 28912   0.3921 314.9783 0001757 121.9113 303.5192  1.00270456 27515
MTSAT-2                 
1 28937U 06004A   13168.77567895  .00000000  00000-0  10000-3 0  4463
2 28937   0.0313 320.6355 0004031 111.3788 258.3768  1.00265947 26886
FORMOSAT-3 FM6          
1 29047U 06011A   13169.08375534  .00000135  00000-0  70607-4 0  1237
2 29047  71.9815 284.7238 0050524 149.8001 262.6460 14.27681401376318
FORMOSAT-3 FM1          
1 29048U 06011B   13169.16825078  .00000123  00000-0  65915-4 0  2043
2 29048  71.9679 198.3140 0042908 101.3102 321.5807 14.27677611378805
FORMOSAT-3 FM5          
1 29049U 06011C   13168.06851943  .00000164  00000-0  82485-4 0  1407
2 29049  72.0212 357.7760 0034864 154.4205 352.3634 14.27691511374424
FORMOSAT-3 FM3          
1 29050U 06011D   13168.16695755  .00000357  00000-0  90602-4 0  4741
2 29050  72.0177  40.2719 0054345 286.0624  73.4546 14.55895116383697
FORMOSAT-3 FM4          
1 29051U 06011E   13169.06642860  .00000167  00000-0  82027-4 0  1952
2 29051  72.0075 262.2921 0068941  22.0762  42.2674 14.27699175377150
FORMOSAT-3 FM2          
1 29052U 06011F   13168.81270733  .00000034  00000-0  29812-4 0  2161
2 29052  72.0363 329.4591 0039899 118.4032 342.4458 14.27754162375421
GOES 13                 
1 29155U 06018A   13168.29438068 -.00000244  00000-0  10000-3 0  6033
2 29155   0.1878 262.5956 0004015 169.5128 224.1961  1.00283459 25908
METOP-A                 
1 29499U 06044A   13168.79342805  .00000051  00000-0  43155-4 0   689
2 29499  98.7141 228.4681 0002483 105.0243 255.1209 14.21501350345668
FENGYUN 2D              
1 29640U 06053A   13169.21835829  .00000000  00000-0  10000-3 0  7018
2 29640   1.6067  72.1782 0002265  25.0649 334.2105  1.00261865 23957
FENGYUN 3A              
1 32958U 08026A   13169.24684556  .00000034  00000-0  36315-4 0   308
2 32958  98.6046 234.3553 0009551 182.2682 177.8445 14.19353117262210
NOAA 19                 
1 33591U 09005A   13168.46512127  .00000175  00000-0  12051-3 0  8367
2 33591  98.9033 110.5274 0015182  71.3892  65.7342 14.11513941224535
GOES 14                 
1 35491U 09033A   13168.36570966 -.00000082  00000-0  00000+0 0  9965
2 35491   0.2412  83.2728 0004289 100.4900 108.2777  1.00271808 14576
METEOR-M 1              
1 35865U 09049A   13169.21104519 -.00000025  00000-0  83127-5 0  5510
2 35865  98.6010 221.6095 0003337  74.3793 285.7749 14.21888177194617
GOES 15                 
1 36411U 10008A   13168.53574539  .00000089  00000-0  10000-3 0  6116
2 36411   0.1912  88.4118 0002111  15.8150 220.0198  1.00285288 12071
COMS 1                  
1 36744U 10032A   13168.95861191  .00000000  00000-0  10000-3 0  5955
2 36744   0.0254  47.6817 0000868  99.0931 232.8417  1.00264299  9619
FENGYUN 3B              
1 37214U 10059A   13169.41188801  .00000052  00000-0  46031-4 0  8920
2 37214  98.8015 114.2193 0002147  74.2698 285.8704 14.19343506135730
ELEKTRO-L 1 (GOMS 2)    
1 37344U 11001A   13168.83497954 -.00000092  00000-0  00000+0 0  6473
2 37344   0.0907  87.4696 0002673  45.7715 149.6146  1.00269948  8879
SUOMI NPP               
1 37849U 11061A   13168.78534066  .00000007  00000-0  23990-4 0  5167
2 37849  98.7521 107.3009 0001776  81.9811 338.0067 14.19551915 84903
FENGYUN 2F              
1 38049U 12002A   13168.72434312  .00000000  00000-0  10000-3 0  3868
2 38049   1.2771 278.1410 0003385 260.1551 100.6441  1.00273883  5290
METOP-B                 
1 38771U 12049A   13169.18380830  .00000056  00000-0  45429-4 0  2344
2 38771  98.7033 229.5214 0002849 152.7534 207.3793 14.21491256 38853
METEOSAT-10 (MSG-3)     
1 38552U 12035B   13168.93776897  .00000002  00000-0  00000+0 0  3725
2 38552   1.0996 242.7985 0001022 230.9400 130.1683  1.00263555  3620


IMAGENS DE SATÉLITES !    Clique e conheça nosso Vídeo Workshop de sensoriamento remoto e imagens meteorológicas.
Apolo11.com - Todos os direitos reservados - 2001 - 2013
Política de Privacidade

"Liberdade, essa palavra que o sonho humano alimanta, que não há ninguém que explique e ninguém que não entenda" - Cecília Meireles